Weather in Kirovsk

Russia / Saint-Petersburg and Leningrad Oblast     59°52′31″N   30°58′53″E
temp.,
°C
wind,
m/s
gust,
m/s
humid.,
%
clouds,
%
prec.,
mm/h
press.,
hPa
HPBL,
m
7 may, fri
fri700:00+3wsw3897100 0.1 995294
03:00+5sw41096100 2.8 996930
06:00+4sw51097100 1.7 997945
09:00+4ssw51197100 2.4 999861
12:00+5ssw5995100 0.4 1001933
15:00+5ssw4892100 0.8 1003779
18:00+6sw378898 0.4 1003824
21:00+5s1295100 0.6 100450
8 may, sat
sat800:00+3sse2396100 0.0 100447
03:00+3s1195100 0.0 100410
06:00+4ene1294100 0.0 100343
09:00+5n2394100 1.2 1002198
12:00+5nnw4794100 2.7 1001661
15:00+5nnw4993100 4.4 1002755
18:00+5nw3790100 0.8 1003806
21:00+5nw399095 1.4 1004564
9 may, sun
sun900:00+3wnw4119219 0.0 1005545
03:00+3wnw5138764 0.0 1007583
06:00+2w411905 0.0 1009350
09:00+6w59721 0.0 1011577
12:00+9w58495 0.0 10141427
15:00+11w483911 0.0 10151549
18:00+11wsw4854100 0.1 10161484
21:00+8sw41077100 0.1 1017431
10 may, mon
mon1000:00+5ssw2787100 0.0 1018134
03:00+6s2786100 0.0 1018169
06:00+6s41193100 1.1 1018567
09:00+8ssw4109194 1.3 1019442
12:00+12ssw597999 0.0 1019542
15:00+19sw51155100 0.0 10181486
18:00+18sw51158100 0.0 10191127
21:00+15ssw51469100 0.0 1020623
11 may, tue
tue1100:00+13ssw51577100 0.0 1020567
03:00+12ssw41381100 0.0 1021457
06:00+11s5138460 0.0 1021414
09:00+14ssw512686 0.0 1021550
12:00+19ssw6105084 0.0 10221037
15:00+21ssw5104495 0.0 10211340
18:00+20ssw5950100 0.0 10211215
21:00+15s38725 0.0 1022167